GW3210 Weather Reports


Display with metric or nautical units.
time (UTC)temp
F
wind
direction
speed
MPH
gust
MPH
rain 1hr
in
rain 24hr
in
rain mn
in
humidity
%
barometer
mb
20260903170616 55 90 1.0 3.0 0.04 0.61 0.17 84 1012.1
20260903165615 54 90 3.0 6.0 0.05 0.61 0.17 83 1012.2
20260903164636 54 90 2.0 4.0 0.06 0.61 0.17 83 1012.2
20260903163655 53 90 3.0 4.0 0.06 0.61 0.17 83 1012.2
20260903162635 53 158 3.0 4.0 0.06 0.61 0.17 83 1012.4
20260903161615 53 113 3.0 4.0 0.04 0.59 0.15 83 1012.3
20260903160635 53 135 1.0 2.0 0.03 0.57 0.13 82 1012.4
20260903155615 53 135 2.0 3.0 0.02 0.56 0.12 82 1012.4
20260903154615 53 113 1.0 2.0 0.02 0.55 0.11 82 1012.4
20260903153615 53 113 1.0 2.0 0.04 0.55 0.11 82 1012.2
20260903152615 53 135 2.0 2.0 0.05 0.55 0.11 81 1012.3
20260903151615 53 113 1.0 2.0 0.05 0.55 0.11 81 1012.3
20260903150615 53 135 4.0 7.0 0.04 0.54 0.10 81 1012.1
20260903145637 53 135 2.0 3.0 0.06 0.54 0.10 81 1012.2
20260903144615 53 135 2.0 7.0 0.07 0.53 0.09 81 1012.2
20260903143615 53 113 3.0 6.0 0.05 0.51 0.07 81 1012.0
20260903142615 53 135 1.0 2.0 0.04 0.50 0.06 80 1011.7
20260903141615 53 158 1.0 2.0 0.05 0.50 0.06 79 1011.6
20260903140615 53 135 2.0 4.0 0.05 0.50 0.06 79 1011.7
20260903135617 53 158 2.0 3.0 0.03 0.48 0.04 79 1011.6
20260903134615 53 158 1.0 2.0 0.01 0.46 0.02 79 1011.5
20260903133617 53 135 1.0 2.0 0.01 0.46 0.02 78 1011.5
20260903132617 53 135 1.0 2.0 0.01 0.46 0.02 78 1011.5
20260903131617 53 0.0 1.0 0.00 0.45 0.01 77 1011.5
20260903130617 53 113 1.0 3.0 0.00 0.45 0.01 76 1011.4
20260903125617 53 113 2.0 4.0 0.00 0.45 0.01 76 1011.3
20260903124617 53 113 1.0 3.0 0.00 0.45 0.01 76 1011.4
20260903123618 53 113 1.0 2.0 0.00 0.45 0.01 76 1011.4
20260903122637 53 135 3.0 4.0 0.00 0.45 0.01 76 1011.4
20260903121617 53 135 2.0 3.0 0.00 0.45 0.01 75 1011.5
20260903120617 53 135 1.0 2.0 0.00 0.45 0.01 76 1011.6
20260903115657 53 135 3.0 5.0 0.00 0.45 0.01 76 1011.5
20260903114617 53 135 3.0 5.0 0.00 0.45 0.01 76 1011.6
20260903113617 53 135 3.0 5.0 0.00 0.45 0.01 77 1011.6
20260903112617 53 135 3.0 5.0 0.00 0.45 0.01 78 1011.4
20260903111617 53 113 2.0 4.0 0.00 0.45 0.01 79 1011.6
20260903110617 53 158 2.0 3.0 0.00 0.45 0.01 81 1011.5
20260903105617 53 135 3.0 5.0 0.00 0.45 0.01 82 1011.5
20260903104616 53 135 2.0 3.0 0.00 0.45 0.01 81 1011.5
20260903103617 53 135 2.0 3.0 0.00 0.45 0.01 82 1011.7
20260903102636 53 135 2.0 4.0 0.00 0.45 0.01 82 1011.6
20260903101617 54 135 1.0 2.0 0.00 0.45 0.01 82 1011.5
20260903100636 54 135 2.0 3.0 0.00 0.45 0.01 82 1011.4
20260903095637 54 90 2.0 4.0 0.00 0.45 0.01 82 1011.3
20260903094637 54 113 1.0 2.0 0.00 0.45 0.01 82 1011.4
20260903093637 54 113 2.0 3.0 0.00 0.45 0.01 82 1011.4
20260903092617 54 135 1.0 2.0 0.00 0.45 0.01 82 1011.5
20260903091616 54 158 1.0 2.0 0.00 0.45 0.01 81 1011.5
20260903090616 54 113 2.0 3.0 0.01 0.45 0.01 81 1011.5
20260903085617 54 90 1.0 2.0 0.01 0.45 0.01 80 1011.4
20260903084616 54 135 1.0 2.0 0.01 0.45 0.01 80 1011.5
20260903083617 54 90 2.0 3.0 0.01 0.45 0.01 80 1011.6
20260903082616 54 158 1.0 2.0 0.01 0.45 0.01 78 1011.6
20260903081617 54 135 1.0 2.0 0.01 0.45 0.01 78 1011.8
20260903080616 54 158 2.0 3.0 0.00 0.44 0.00 78 1011.8
20260903075638 54 135 3.0 5.0 0.00 0.44 0.00 78 1011.7
20260903074616 54 158 3.0 5.0 0.00 0.44 0.00 77 1011.7
20260903073617 54 135 5.0 8.0 0.01 0.44 0.00 78 1011.7
20260903072616 54 158 4.0 8.0 0.01 0.44 0.00 77 1011.5
20260903065617 55 158 1.0 2.0 0.01 0.44 0.44 77 1011.6
20260903064617 55 225 2.0 5.0 0.01 0.44 0.44 77 1011.5
20260903063617 55 203 2.0 5.0 0.00 0.43 0.43 77 1011.5
20260903062637 55 180 2.0 4.0 0.00 0.43 0.43 77 1011.6
20260903061617 55 180 2.0 4.0 0.00 0.43 0.43 79 1011.6
20260903060617 55 158 2.0 3.0 0.00 0.43 0.43 81 1011.5
20260903055617 55 135 3.0 5.0 0.00 0.43 0.43 81 1011.5
20260903054617 55 158 2.0 4.0 0.00 0.43 0.43 82 1011.7
20260903053617 55 158 3.0 8.0 0.00 0.43 0.43 82 1011.7
20260903052637 55 135 4.0 5.0 0.00 0.43 0.43 82 1011.7
20260903051617 55 135 1.0 2.0 0.00 0.43 0.43 82 1011.6
20260903050617 55 158 4.0 8.0 0.00 0.43 0.43 82 1011.6
20260903045617 55 158 3.0 5.0 0.00 0.43 0.43 83 1011.6
20260903044617 55 135 3.0 5.0 0.00 0.43 0.43 83 1011.4
20260903043617 55 180 3.0 7.0 0.00 0.43 0.43 83 1011.2
20260903042616 56 158 4.0 5.0 0.00 0.43 0.43 83 1011.2
20260903041616 56 180 3.0 6.0 0.00 0.43 0.43 83 1011.1
20260903040617 56 158 2.0 3.0 0.00 0.43 0.43 83 1011.0
20260903035617 56 180 2.0 4.0 0.00 0.43 0.43 83 1010.9
20260903034616 56 158 3.0 5.0 0.00 0.43 0.43 83 1010.8
20260903033617 56 135 4.0 5.0 0.00 0.43 0.43 83 1010.7
20260903032637 57 135 3.0 4.0 0.00 0.43 0.43 83 1010.7
20260903031616 57 158 5.0 9.0 0.00 0.43 0.43 83 1010.6
20260903030616 57 158 2.0 4.0 0.00 0.43 0.43 83 1010.4
20260903025616 57 135 3.0 5.0 0.00 0.43 0.43 83 1010.3
20260903024616 57 135 3.0 4.0 0.00 0.43 0.43 83 1010.1
20260903023616 57 158 3.0 6.0 0.00 0.43 0.43 83 1010.2
20260903022617 57 180 4.0 9.0 0.00 0.43 0.43 83 1010.1
20260903021636 57 135 3.0 5.0 0.00 0.43 0.43 83 1010.1
20260903020617 57 158 2.0 4.0 0.00 0.43 0.43 83 1009.8
20260903015637 57 158 3.0 6.0 0.00 0.43 0.43 83 1009.8
20260903014617 57 135 3.0 6.0 0.01 0.43 0.43 83 1009.7
20260903013636 57 135 3.0 3.0 0.01 0.43 0.43 83 1009.7
20260903012616 57 158 1.0 1.0 0.01 0.43 0.43 83 1009.6
20260903011616 58 135 4.0 5.0 0.01 0.43 0.43 83 1009.5
20260903010616 58 180 2.0 4.0 0.01 0.43 0.43 83 1009.5
20260903005657 58 158 1.0 4.0 0.01 0.43 0.43 83 1009.4
20260903004616 58 135 4.0 7.0 0.00 0.42 0.42 83 1009.2
20260903003616 58 135 3.0 4.0 0.00 0.42 0.42 83 1009.2
20260903002617 58 158 1.0 3.0 0.00 0.42 0.42 83 1009.2
20260903001616 58 158 2.0 3.0 0.01 0.42 0.42 83 1009.1
20260903000616 58 180 2.0 6.0 0.02 0.42 0.42 83 1009.1
20260902235616 58 158 2.0 4.0 0.04 0.42 0.42 83 1009.1
20260902234616 58 180 2.0 2.0 0.04 0.42 0.42 83 1009.2
20260902233616 57 203 2.0 3.0 0.04 0.42 0.42 83 1009.1
20260902232636 57 203 2.0 4.0 0.04 0.42 0.42 83 1009.1
20260902231617 58 203 2.0 5.0 0.03 0.41 0.41 83 1009.0
20260902230616 58 135 3.0 5.0 0.02 0.40 0.40 83 1008.9
20260902225616 58 135 2.0 3.0 0.00 0.38 0.38 84 1008.9
20260902224616 58 158 2.0 4.0 0.01 0.38 0.38 83 1008.8
20260902223616 58 0.0 1.0 0.01 0.38 0.38 83 1008.8
20260902222616 57 135 2.0 3.0 0.01 0.38 0.38 83 1008.9
20260902221616 57 90 3.0 6.0 0.02 0.38 0.38 83 1008.9
20260902220616 58 90 2.0 4.0 0.03 0.38 0.38 83 1008.8
20260902215616 58 90 2.0 3.0 0.04 0.38 0.38 83 1008.9
20260902214636 58 68 2.0 5.0 0.04 0.37 0.37 83 1008.7
20260902213616 58 158 2.0 3.0 0.06 0.37 0.37 83 1008.8
20260902212616 57 113 3.0 6.0 0.09 0.37 0.37 83 1008.7
20260902211616 57 135 3.0 5.0 0.10 0.36 0.36 82 1008.8
20260902210616 57 113 1.0 3.0 0.11 0.35 0.35 82 1008.7
20260902205616 57 90 2.0 4.0 0.13 0.34 0.34 81 1008.6
20260902204616 57 113 3.0 4.0 0.13 0.33 0.33 80 1008.4
20260902203615 57 90 4.0 8.0 0.12 0.31 0.31 80 1008.2
20260902202616 57 90 3.0 4.0 0.10 0.28 0.28 78 1008.3
20260902201616 57 90 1.0 2.0 0.09 0.26 0.26 78 1008.4
20260902200616 57 68 2.0 3.0 0.08 0.24 0.24 78 1008.5
20260902195616 58 90 3.0 7.0 0.06 0.21 0.21 78 1008.4
20260902194615 58 90 2.0 3.0 0.07 0.20 0.20 77 1008.5
20260902193615 58 90 3.0 6.0 0.08 0.19 0.19 75 1008.7
20260902192636 58 68 1.0 3.0 0.09 0.18 0.18 74 1008.6
20260902191636 58 113 1.0 2.0 0.10 0.17 0.17 74 1008.8
20260902190615 58 90 2.0 3.0 0.12 0.16 0.16 70 1009.0
20260902185616 58 90 3.0 4.0 0.12 0.15 0.15 68 1009.2
20260902184616 59 158 1.0 2.0 0.12 0.13 0.13 66 1009.3
20260902183615 59 225 1.0 1.0 0.11 0.11 0.11 67 1009.5
20260902182616 60 225 1.0 2.0 0.09 0.09 0.09 67 1009.7
20260902181615 60 0.0 1.0 0.07 0.07 0.07 66 1009.5
20260902180616 61 0.0 0.0 0.04 0.04 0.04 65 1009.4
20260902175615 62 0.0 0.0 0.03 0.03 0.03 65 1009.3
20260902174616 62 0.0 0.0 0.01 0.01 0.01 65 1009.1
20260902173616 62 90 1.0 1.0 0.00 0.00 0.00 64 1009.1
20260902172616 63 0.0 0.0 0.00 0.00 0.00 61 1009.1
20260902171616 63 0.0 1.0 0.00 0.00 0.00 61 1008.9